Time,TemperatureF,DewpointF,PressureIn,WindDirection,WindDirectionDegrees,WindSpeedMPH,WindSpeedGustMPH,Humidity,HourlyPrecipIn,Conditions,Clouds,dailyrainin,SolarRadiationWatts/m^2,SoftwareType,DateUTC
2013-04-27 00:01:00,52.3,46.0,30.44,ESE,122,0.0,3.0,79,0.00,,,0.00,0,Wunderground v.1.15,2013-04-27 04:01:00,
2013-04-27 00:03:00,52.2,45.9,30.44,ESE,122,0.0,3.0,79,0.00,,,0.00,0,Wunderground v.1.15,2013-04-27 04:03:00,
2013-04-27 00:04:00,52.2,45.9,30.44,ESE,122,0.0,3.0,79,0.00,,,0.00,0,Wunderground v.1.15,2013-04-27 04:04:00,
2013-04-27 00:06:00,52.1,45.8,30.44,ESE,122,1.0,3.0,79,0.00,,,0.00,0,Wunderground v.1.15,2013-04-27 04:06:00,
2013-04-27 00:07:00,52.2,45.9,30.44,ESE,122,1.0,3.0,79,0.00,,,0.00,0,Wunderground v.1.15,2013-04-27 04:07:00,
2013-04-27 00:13:00,52.3,46.0,30.44,ESE,123,0.0,1.0,79,0.00,,,0.00,0,Wunderground v.1.15,2013-04-27 04:13:00,
2013-04-27 00:18:00,51.9,45.6,30.44,ESE,122,0.0,1.0,79,0.00,,,0.00,0,Wunderground v.1.15,2013-04-27 04:18:00,
2013-04-27 00:23:00,52.0,45.4,30.44,ESE,123,2.0,2.0,78,0.00,,,0.00,0,Wunderground v.1.15,2013-04-27 04:23:00,
2013-04-27 00:28:00,52.4,45.4,30.44,SE,126,0.0,3.0,77,0.00,,,0.00,0,Wunderground v.1.15,2013-04-27 04:28:00,
2013-04-27 00:33:00,52.0,45.0,30.44,SE,126,0.0,1.0,77,0.00,,,0.00,0,Wunderground v.1.15,2013-04-27 04:33:00,
2013-04-27 00:38:00,52.1,45.1,30.44,ESE,114,3.0,3.0,77,0.00,,,0.00,0,Wunderground v.1.15,2013-04-27 04:38:00,
2013-04-27 00:43:00,52.7,45.0,30.44,SE,124,2.0,3.0,75,0.00,,,0.00,0,Wunderground v.1.15,2013-04-27 04:43:00,
2013-04-27 00:48:00,52.8,44.4,30.45,SE,124,3.0,3.0,73,0.00,,,0.00,0,Wunderground v.1.15,2013-04-27 04:48:00,
2013-04-27 00:53:00,52.9,44.1,30.44,SE,128,3.0,3.0,72,0.00,,,0.00,0,Wunderground v.1.15,2013-04-27 04:53:00,
2013-04-27 00:58:00,52.8,44.0,30.44,SE,128,1.0,3.0,72,0.00,,,0.00,0,Wunderground v.1.15,2013-04-27 04:58:00,
2013-04-27 01:03:00,52.8,44.0,30.44,ESE,117,1.0,2.0,72,0.00,,,0.00,0,Wunderground v.1.15,2013-04-27 05:03:00,
2013-04-27 01:08:00,52.5,43.7,30.44,ESE,119,0.0,2.0,72,0.00,,,0.00,0,Wunderground v.1.15,2013-04-27 05:08:00,
2013-04-27 01:13:00,52.4,43.6,30.44,ESE,119,0.0,3.0,72,0.00,,,0.00,0,Wunderground v.1.15,2013-04-27 05:13:00,
2013-04-27 01:18:00,52.2,43.4,30.44,ESE,119,0.0,3.0,72,0.00,,,0.00,0,Wunderground v.1.15,2013-04-27 05:18:00,
2013-04-27 01:23:00,51.6,43.2,30.44,ESE,119,0.0,1.0,73,0.00,,,0.00,0,Wunderground v.1.15,2013-04-27 05:23:00,
2013-04-27 01:28:00,51.9,43.2,30.44,ESE,119,1.0,2.0,72,0.00,,,0.00,0,Wunderground v.1.15,2013-04-27 05:28:00,
2013-04-27 01:33:00,52.3,43.2,30.43,ESE,121,2.0,3.0,71,0.00,,,0.00,0,Wunderground v.1.15,2013-04-27 05:33:00,
2013-04-27 01:38:00,52.3,42.8,30.43,ESE,121,0.0,3.0,70,0.00,,,0.00,0,Wunderground v.1.15,2013-04-27 05:38:00,
2013-04-27 01:43:00,52.4,42.5,30.44,ESE,123,2.0,2.0,69,0.00,,,0.00,0,Wunderground v.1.15,2013-04-27 05:43:00,
2013-04-27 01:48:00,52.4,42.5,30.44,ESE,123,1.0,2.0,69,0.00,,,0.00,0,Wunderground v.1.15,2013-04-27 05:48:00,
2013-04-27 01:53:00,52.3,42.4,30.44,ESE,123,1.0,2.0,69,0.00,,,0.00,0,Wunderground v.1.15,2013-04-27 05:53:00,
2013-04-27 01:58:00,52.1,43.0,30.44,ESE,123,0.0,2.0,71,0.00,,,0.00,0,Wunderground v.1.15,2013-04-27 05:58:00,
2013-04-27 02:03:00,51.2,42.5,30.44,ESE,123,0.0,0.0,72,0.00,,,0.00,0,Wunderground v.1.15,2013-04-27 06:03:00,
2013-04-27 02:08:00,51.7,42.6,30.44,ESE,123,1.0,2.0,71,0.00,,,0.00,0,Wunderground v.1.15,2013-04-27 06:08:00,
2013-04-27 02:13:00,52.0,42.5,30.43,ESE,122,2.0,3.0,70,0.00,,,0.00,0,Wunderground v.1.15,2013-04-27 06:13:00,
2013-04-27 02:18:00,51.9,42.4,30.43,ESE,122,0.0,3.0,70,0.00,,,0.00,0,Wunderground v.1.15,2013-04-27 06:18:00,
2013-04-27 02:23:00,51.5,42.8,30.43,ESE,122,0.0,1.0,72,0.00,,,0.00,0,Wunderground v.1.15,2013-04-27 06:23:00,
2013-04-27 02:28:00,51.6,42.5,30.43,ESE,122,0.0,2.0,71,0.00,,,0.00,0,Wunderground v.1.15,2013-04-27 06:28:00,
2013-04-27 02:33:00,52.0,42.1,30.43,East,98,1.0,3.0,69,0.00,,,0.00,0,Wunderground v.1.15,2013-04-27 06:33:00,
2013-04-27 02:38:00,52.1,42.2,30.43,ESE,104,1.0,3.0,69,0.00,,,0.00,0,Wunderground v.1.15,2013-04-27 06:38:00,
2013-04-27 02:43:00,52.0,42.1,30.43,ESE,108,1.0,2.0,69,0.00,,,0.00,0,Wunderground v.1.15,2013-04-27 06:43:00,
2013-04-27 02:48:00,52.0,42.5,30.44,ESE,116,2.0,3.0,70,0.00,,,0.00,0,Wunderground v.1.15,2013-04-27 06:48:00,
2013-04-27 02:53:00,51.7,42.2,30.43,ESE,118,1.0,3.0,70,0.00,,,0.00,0,Wunderground v.1.15,2013-04-27 06:53:00,
2013-04-27 02:58:00,51.4,42.3,30.43,ESE,118,0.0,3.0,71,0.00,,,0.00,0,Wunderground v.1.15,2013-04-27 06:58:00,
2013-04-27 03:03:00,51.4,42.3,30.44,ESE,118,2.0,2.0,71,0.00,,,0.00,0,Wunderground v.1.15,2013-04-27 07:03:00,
2013-04-27 03:08:00,51.5,42.4,30.43,ESE,118,1.0,3.0,71,0.00,,,0.00,0,Wunderground v.1.15,2013-04-27 07:08:00,
2013-04-27 03:13:00,51.5,42.8,30.43,ESE,118,1.0,2.0,72,0.00,,,0.00,0,Wunderground v.1.15,2013-04-27 07:13:00,
2013-04-27 03:18:00,51.3,42.6,30.43,ESE,118,2.0,3.0,72,0.00,,,0.00,0,Wunderground v.1.15,2013-04-27 07:18:00,
2013-04-27 03:23:00,51.2,42.5,30.44,ESE,118,1.0,2.0,72,0.00,,,0.00,0,Wunderground v.1.15,2013-04-27 07:23:00,
2013-04-27 03:28:00,51.3,42.2,30.43,ESE,118,1.0,3.0,71,0.00,,,0.00,0,Wunderground v.1.15,2013-04-27 07:28:00,
2013-04-27 03:34:00,51.4,42.7,30.43,ESE,120,1.0,3.0,72,0.00,,,0.00,0,Wunderground v.1.15,2013-04-27 07:34:00,
2013-04-27 03:39:00,51.5,42.4,30.43,ESE,119,1.0,3.0,71,0.00,,,0.00,0,Wunderground v.1.15,2013-04-27 07:39:00,
2013-04-27 03:44:00,51.2,42.8,30.43,ESE,119,1.0,2.0,73,0.00,,,0.00,0,Wunderground v.1.15,2013-04-27 07:44:00,
2013-04-27 03:49:00,50.8,42.5,30.43,ESE,119,1.0,2.0,73,0.00,,,0.00,0,Wunderground v.1.15,2013-04-27 07:49:00,
2013-04-27 03:54:00,50.9,42.6,30.43,ESE,120,0.0,1.0,73,0.00,,,0.00,0,Wunderground v.1.15,2013-04-27 07:54:00,
2013-04-27 03:59:00,50.9,42.9,30.43,ESE,120,1.0,2.0,74,0.00,,,0.00,0,Wunderground v.1.15,2013-04-27 07:59:00,
2013-04-27 04:04:00,50.8,43.2,30.43,ESE,119,0.0,2.0,75,0.00,,,0.00,0,Wunderground v.1.15,2013-04-27 08:04:00,
2013-04-27 04:09:00,50.7,42.7,30.43,ESE,119,1.0,3.0,74,0.00,,,0.00,0,Wunderground v.1.15,2013-04-27 08:09:00,
2013-04-27 04:14:00,50.8,43.2,30.43,ESE,119,1.0,2.0,75,0.00,,,0.00,0,Wunderground v.1.15,2013-04-27 08:14:00,
2013-04-27 04:19:00,50.5,43.2,30.43,ESE,120,0.0,3.0,76,0.00,,,0.00,0,Wunderground v.1.15,2013-04-27 08:19:00,
2013-04-27 04:24:00,50.2,42.9,30.43,ESE,120,2.0,3.0,76,0.00,,,0.00,0,Wunderground v.1.15,2013-04-27 08:24:00,
2013-04-27 04:29:00,50.5,42.9,30.42,ESE,123,3.0,3.0,75,0.00,,,0.00,0,Wunderground v.1.15,2013-04-27 08:29:00,
2013-04-27 04:34:00,50.8,43.2,30.42,ESE,123,2.0,2.0,75,0.00,,,0.00,0,Wunderground v.1.15,2013-04-27 08:34:00,
2013-04-27 04:39:00,50.9,42.9,30.42,ESE,123,2.0,2.0,74,0.00,,,0.00,0,Wunderground v.1.15,2013-04-27 08:39:00,
2013-04-27 04:44:00,51.2,43.2,30.43,ESE,123,1.0,2.0,74,0.00,,,0.00,0,Wunderground v.1.15,2013-04-27 08:44:00,
2013-04-27 04:49:00,51.3,43.3,30.42,East,100,1.0,3.0,74,0.00,,,0.00,0,Wunderground v.1.15,2013-04-27 08:49:00,
2013-04-27 04:54:00,51.3,43.3,30.42,East,100,1.0,2.0,74,0.00,,,0.00,0,Wunderground v.1.15,2013-04-27 08:54:00,
2013-04-27 04:59:00,51.2,43.2,30.42,ESE,109,2.0,3.0,74,0.00,,,0.00,0,Wunderground v.1.15,2013-04-27 08:59:00,
2013-04-27 05:04:00,51.1,43.4,30.42,East,98,2.0,4.0,75,0.00,,,0.00,0,Wunderground v.1.15,2013-04-27 09:04:00,
2013-04-27 05:09:00,50.9,43.6,30.42,ESE,108,2.0,5.0,76,0.00,,,0.00,0,Wunderground v.1.15,2013-04-27 09:09:00,
2013-04-27 05:14:00,50.8,43.5,30.42,ESE,106,2.0,3.0,76,0.00,,,0.00,0,Wunderground v.1.15,2013-04-27 09:14:00,
2013-04-27 05:19:00,50.3,43.4,30.42,ESE,114,1.0,3.0,77,0.00,,,0.00,0,Wunderground v.1.15,2013-04-27 09:19:00,
2013-04-27 05:25:00,50.1,43.2,30.42,ESE,119,0.0,3.0,77,0.00,,,0.00,0,Wunderground v.1.15,2013-04-27 09:25:00,
2013-04-27 05:30:00,50.1,43.2,30.42,ESE,119,0.0,1.0,77,0.00,,,0.00,0,Wunderground v.1.15,2013-04-27 09:30:00,
2013-04-27 05:35:00,50.2,43.3,30.42,ESE,119,1.0,3.0,77,0.00,,,0.00,0,Wunderground v.1.15,2013-04-27 09:35:00,
2013-04-27 05:40:00,50.0,43.4,30.42,ESE,119,0.0,1.0,78,0.00,,,0.00,0,Wunderground v.1.15,2013-04-27 09:40:00,
2013-04-27 05:45:00,49.5,43.6,30.42,ESE,119,0.0,1.0,80,0.00,,,0.00,0,Wunderground v.1.15,2013-04-27 09:45:00,
2013-04-27 05:50:00,49.8,43.5,30.42,ESE,119,1.0,1.0,79,0.00,,,0.00,0,Wunderground v.1.15,2013-04-27 09:50:00,
2013-04-27 05:55:00,50.2,43.6,30.42,ESE,111,2.0,3.0,78,0.00,,,0.00,0,Wunderground v.1.15,2013-04-27 09:55:00,
2013-04-27 06:00:00,50.3,43.7,30.42,ESE,115,0.0,1.0,78,0.00,,,0.00,0,Wunderground v.1.15,2013-04-27 10:00:00,
2013-04-27 06:05:00,50.5,43.9,30.42,ESE,115,1.0,2.0,78,0.00,,,0.00,0,Wunderground v.1.15,2013-04-27 10:05:00,
2013-04-27 06:10:00,50.6,43.7,30.42,ESE,115,0.0,0.0,77,0.00,,,0.00,0,Wunderground v.1.15,2013-04-27 10:10:00,
2013-04-27 06:15:00,50.6,43.7,30.42,ESE,115,0.0,1.0,77,0.00,,,0.00,0,Wunderground v.1.15,2013-04-27 10:15:00,
2013-04-27 06:20:00,49.2,43.9,30.43,ESE,115,0.0,0.0,82,0.00,,,0.00,0,Wunderground v.1.15,2013-04-27 10:20:00,
2013-04-27 06:25:00,48.0,44.0,30.43,ESE,115,0.0,0.0,86,0.00,,,0.00,0,Wunderground v.1.15,2013-04-27 10:25:00,
2013-04-27 06:30:00,47.8,44.1,30.43,ESE,115,0.0,0.0,87,0.00,,,0.00,5,Wunderground v.1.15,2013-04-27 10:30:00,
2013-04-27 06:35:00,47.4,44.0,30.43,ESE,115,0.0,0.0,88,0.00,,,0.00,9,Wunderground v.1.15,2013-04-27 10:35:00,
2013-04-27 06:40:00,47.1,44.0,30.43,ESE,115,0.0,0.0,89,0.00,,,0.00,12,Wunderground v.1.15,2013-04-27 10:40:00,
2013-04-27 06:46:00,47.2,44.4,30.43,ESE,115,0.0,0.0,90,0.00,,,0.00,18,Wunderground v.1.15,2013-04-27 10:46:00,
2013-04-27 06:51:00,47.7,44.3,30.44,ESE,115,0.0,0.0,88,0.00,,,0.00,25,Wunderground v.1.15,2013-04-27 10:51:00,
2013-04-27 06:56:00,47.7,44.3,30.44,ESE,115,0.0,0.0,88,0.00,,,0.00,39,Wunderground v.1.15,2013-04-27 10:56:00,
2013-04-27 07:01:00,47.8,44.7,30.44,ESE,115,0.0,0.0,89,0.00,,,0.00,60,Wunderground v.1.15,2013-04-27 11:01:00,
2013-04-27 07:06:00,48.2,45.4,30.44,ESE,115,0.0,0.0,90,0.00,,,0.00,63,Wunderground v.1.15,2013-04-27 11:06:00,
2013-04-27 07:11:00,49.4,46.0,30.43,ESE,115,0.0,0.0,88,0.00,,,0.00,74,Wunderground v.1.15,2013-04-27 11:11:00,
2013-04-27 07:16:00,49.6,45.6,30.43,ESE,115,0.0,1.0,86,0.00,,,0.00,77,Wunderground v.1.15,2013-04-27 11:16:00,
2013-04-27 07:21:00,49.9,45.9,30.44,ESE,115,0.0,0.0,86,0.00,,,0.00,86,Wunderground v.1.15,2013-04-27 11:21:00,
2013-04-27 07:26:00,49.4,45.7,30.44,ESE,115,0.0,0.0,87,0.00,,,0.00,114,Wunderground v.1.15,2013-04-27 11:26:00,
2013-04-27 07:31:00,49.5,45.5,30.44,ESE,115,0.0,0.0,86,0.00,,,0.00,163,Wunderground v.1.15,2013-04-27 11:31:00,
2013-04-27 07:36:00,50.3,46.3,30.44,ESE,115,0.0,1.0,86,0.00,,,0.00,220,Wunderground v.1.15,2013-04-27 11:36:00,
2013-04-27 07:41:00,51.1,46.1,30.44,ESE,115,0.0,0.0,83,0.00,,,0.00,257,Wunderground v.1.15,2013-04-27 11:41:00,
2013-04-27 07:46:00,52.0,46.0,30.44,ESE,117,0.0,1.0,80,0.00,,,0.00,285,Wunderground v.1.15,2013-04-27 11:46:00,
2013-04-27 07:51:00,52.4,46.1,30.44,ESE,117,0.0,2.0,79,0.00,,,0.00,158,Wunderground v.1.15,2013-04-27 11:51:00,
2013-04-27 07:56:00,52.3,45.6,30.45,ESE,117,0.0,2.0,78,0.00,,,0.00,127,Wunderground v.1.15,2013-04-27 11:56:00,
2013-04-27 08:01:00,52.7,46.0,30.45,ESE,117,2.0,2.0,78,0.00,,,0.00,336,Wunderground v.1.15,2013-04-27 12:01:00,
2013-04-27 08:06:00,53.3,46.3,30.45,ESE,117,1.0,2.0,77,0.00,,,0.00,348,Wunderground v.1.15,2013-04-27 12:06:00,
2013-04-27 08:11:00,53.8,46.4,30.45,ESE,117,1.0,2.0,76,0.00,,,0.00,353,Wunderground v.1.15,2013-04-27 12:11:00,
2013-04-27 08:16:00,54.1,46.3,30.45,East,97,0.0,2.0,75,0.00,,,0.00,339,Wunderground v.1.15,2013-04-27 12:16:00,
2013-04-27 08:21:00,54.2,46.8,30.45,East,100,0.0,1.0,76,0.00,,,0.00,388,Wunderground v.1.15,2013-04-27 12:21:00,
2013-04-27 08:26:00,54.4,47.0,30.45,East,101,0.0,1.0,76,0.00,,,0.00,366,Wunderground v.1.15,2013-04-27 12:26:00,
2013-04-27 08:31:00,55.5,48.1,30.45,ESE,110,1.0,2.0,76,0.00,,,0.00,429,Wunderground v.1.15,2013-04-27 12:31:00,
2013-04-27 08:36:00,56.4,48.2,30.45,ESE,111,0.0,3.0,74,0.00,,,0.00,455,Wunderground v.1.15,2013-04-27 12:36:00,
2013-04-27 08:41:00,57.5,48.9,30.45,SSE,164,3.0,3.0,73,0.00,,,0.00,497,Wunderground v.1.15,2013-04-27 12:41:00,
2013-04-27 08:46:00,58.2,48.8,30.44,South,171,1.0,3.0,71,0.00,,,0.00,339,Wunderground v.1.15,2013-04-27 12:46:00,
2013-04-27 08:51:00,59.1,48.5,30.44,SSW,195,2.0,4.0,68,0.00,,,0.00,374,Wunderground v.1.15,2013-04-27 12:51:00,
2013-04-27 08:57:00,59.1,48.1,30.44,South,173,1.0,4.0,67,0.00,,,0.00,325,Wunderground v.1.15,2013-04-27 12:57:00,
2013-04-27 09:02:00,59.3,47.5,30.44,SSW,192,1.0,5.0,65,0.00,,,0.00,415,Wunderground v.1.15,2013-04-27 13:02:00,
2013-04-27 09:07:00,60.1,48.3,30.44,South,182,1.0,5.0,65,0.00,,,0.00,371,Wunderground v.1.15,2013-04-27 13:07:00,
2013-04-27 09:12:00,60.1,47.9,30.44,South,173,1.0,4.0,64,0.00,,,0.00,508,Wunderground v.1.15,2013-04-27 13:12:00,
2013-04-27 09:17:00,60.3,46.8,30.44,South,171,3.0,5.0,61,0.00,,,0.00,353,Wunderground v.1.15,2013-04-27 13:17:00,
2013-04-27 09:22:00,59.9,46.0,30.45,SSE,157,1.0,7.0,60,0.00,,,0.00,318,Wunderground v.1.15,2013-04-27 13:22:00,
2013-04-27 09:27:00,60.1,45.7,30.45,South,176,5.0,7.0,59,0.00,,,0.00,309,Wunderground v.1.15,2013-04-27 13:27:00,
2013-04-27 09:32:00,60.2,46.3,30.45,SSE,165,3.0,4.0,60,0.00,,,0.00,374,Wunderground v.1.15,2013-04-27 13:32:00,
2013-04-27 09:37:00,60.5,46.1,30.45,South,177,2.0,5.0,59,0.00,,,0.00,396,Wunderground v.1.15,2013-04-27 13:37:00,
2013-04-27 09:42:00,60.3,45.9,30.45,South,180,1.0,5.0,59,0.00,,,0.00,380,Wunderground v.1.15,2013-04-27 13:42:00,
2013-04-27 09:48:00,60.6,46.2,30.44,South,171,1.0,5.0,59,0.00,,,0.00,434,Wunderground v.1.15,2013-04-27 13:48:00,
2013-04-27 09:53:00,61.5,45.7,30.44,SSE,165,2.0,3.0,56,0.00,,,0.00,610,Wunderground v.1.15,2013-04-27 13:53:00,
2013-04-27 09:58:00,62.0,46.1,30.44,South,188,1.0,5.0,56,0.00,,,0.00,701,Wunderground v.1.15,2013-04-27 13:58:00,
2013-04-27 10:03:00,62.2,44.9,30.44,South,180,2.0,4.0,53,0.00,,,0.00,693,Wunderground v.1.15,2013-04-27 14:03:00,
2013-04-27 10:08:00,62.2,45.3,30.44,SSW,204,6.0,6.0,54,0.00,,,0.00,656,Wunderground v.1.15,2013-04-27 14:08:00,
2013-04-27 10:13:00,62.7,47.2,30.44,SW,219,1.0,5.0,57,0.00,,,0.00,728,Wunderground v.1.15,2013-04-27 14:13:00,
2013-04-27 10:18:00,63.5,45.6,30.44,South,188,0.0,5.0,52,0.00,,,0.00,715,Wunderground v.1.15,2013-04-27 14:18:00,
2013-04-27 10:23:00,63.7,44.7,30.44,South,184,5.0,5.0,50,0.00,,,0.00,733,Wunderground v.1.15,2013-04-27 14:23:00,
2013-04-27 10:28:00,64.1,44.5,30.43,SSE,153,2.0,5.0,49,0.00,,,0.00,758,Wunderground v.1.15,2013-04-27 14:28:00,
2013-04-27 10:33:00,64.9,45.3,30.44,SSW,208,3.0,5.0,49,0.00,,,0.00,756,Wunderground v.1.15,2013-04-27 14:33:00,
2013-04-27 10:38:00,65.2,46.6,30.44,SSW,212,4.0,6.0,51,0.00,,,0.00,756,Wunderground v.1.15,2013-04-27 14:38:00,
2013-04-27 10:43:00,65.9,44.5,30.44,SSW,211,3.0,5.0,46,0.00,,,0.00,800,Wunderground v.1.15,2013-04-27 14:43:00,
2013-04-27 10:48:00,66.1,45.3,30.44,WSW,239,3.0,5.0,47,0.00,,,0.00,809,Wunderground v.1.15,2013-04-27 14:48:00,
2013-04-27 10:53:00,65.6,44.3,30.44,SSW,199,4.0,9.0,46,0.00,,,0.00,821,Wunderground v.1.15,2013-04-27 14:53:00,
2013-04-27 10:58:00,66.3,44.3,30.44,South,180,2.0,9.0,45,0.00,,,0.00,821,Wunderground v.1.15,2013-04-27 14:58:00,
2013-04-27 11:03:00,66.1,43.5,30.44,SSW,192,3.0,7.0,44,0.00,,,0.00,795,Wunderground v.1.15,2013-04-27 15:03:00,
2013-04-27 11:09:00,66.1,41.7,30.44,South,182,5.0,8.0,41,0.00,,,0.00,816,Wunderground v.1.15,2013-04-27 15:09:00,
2013-04-27 11:14:00,66.4,43.2,30.44,South,184,3.0,7.0,43,0.00,,,0.00,784,Wunderground v.1.15,2013-04-27 15:14:00,
2013-04-27 11:19:00,66.5,43.9,30.43,South,180,4.0,7.0,44,0.00,,,0.00,796,Wunderground v.1.15,2013-04-27 15:19:00,
2013-04-27 11:24:00,66.7,43.5,30.43,SSW,194,4.0,5.0,43,0.00,,,0.00,812,Wunderground v.1.15,2013-04-27 15:24:00,
2013-04-27 11:29:00,67.4,43.5,30.43,SW,222,7.0,7.0,42,0.00,,,0.00,810,Wunderground v.1.15,2013-04-27 15:29:00,
2013-04-27 11:34:00,67.8,41.9,30.43,SSE,157,3.0,7.0,39,0.00,,,0.00,798,Wunderground v.1.15,2013-04-27 15:34:00,
2013-04-27 11:39:00,67.6,44.9,30.43,WSW,240,0.0,7.0,44,0.00,,,0.00,888,Wunderground v.1.15,2013-04-27 15:39:00,
2013-04-27 11:44:00,67.4,40.2,30.43,SSE,161,3.0,7.0,37,0.00,,,0.00,865,Wunderground v.1.15,2013-04-27 15:44:00,
2013-04-27 11:49:00,67.7,45.0,30.42,WSW,242,2.0,10.0,44,0.00,,,0.00,888,Wunderground v.1.15,2013-04-27 15:49:00,
2013-04-27 11:54:00,68.5,41.9,30.43,SE,144,7.0,7.0,38,0.00,,,0.00,877,Wunderground v.1.15,2013-04-27 15:54:00,
2013-04-27 11:59:00,68.1,44.7,30.42,NNW,333,0.0,7.0,43,0.00,,,0.00,911,Wunderground v.1.15,2013-04-27 15:59:00,
2013-04-27 12:04:00,68.9,43.6,30.42,South,184,3.0,8.0,40,0.00,,,0.00,881,Wunderground v.1.15,2013-04-27 16:04:00,
2013-04-27 12:09:00,68.6,41.3,30.42,SE,126,10.0,11.0,37,0.00,,,0.00,923,Wunderground v.1.15,2013-04-27 16:09:00,
2013-04-27 12:14:00,68.6,42.0,30.42,ESE,113,1.0,8.0,38,0.00,,,0.00,879,Wunderground v.1.15,2013-04-27 16:14:00,
2013-04-27 12:19:00,68.9,43.6,30.42,South,180,4.0,8.0,40,0.00,,,0.00,896,Wunderground v.1.15,2013-04-27 16:19:00,
2013-04-27 12:24:00,69.1,41.0,30.41,SSW,211,1.0,6.0,36,0.00,,,0.00,928,Wunderground v.1.15,2013-04-27 16:24:00,
2013-04-27 12:29:00,69.5,42.8,30.41,SSW,211,5.0,7.0,38,0.00,,,0.00,896,Wunderground v.1.15,2013-04-27 16:29:00,
2013-04-27 12:34:00,69.7,40.8,30.41,South,178,5.0,7.0,35,0.00,,,0.00,919,Wunderground v.1.15,2013-04-27 16:34:00,
2013-04-27 12:39:00,69.4,43.4,30.41,SSE,165,1.0,7.0,39,0.00,,,0.00,925,Wunderground v.1.15,2013-04-27 16:39:00,
2013-04-27 12:44:00,70.2,40.5,30.41,SE,136,5.0,8.0,34,0.00,,,0.00,919,Wunderground v.1.15,2013-04-27 16:44:00,
2013-04-27 12:49:00,70.3,42.8,30.41,SSE,165,4.0,9.0,37,0.00,,,0.00,911,Wunderground v.1.15,2013-04-27 16:49:00,
2013-04-27 12:54:00,69.7,42.9,30.40,South,186,1.0,4.0,38,0.00,,,0.00,914,Wunderground v.1.15,2013-04-27 16:54:00,
2013-04-27 12:59:00,69.8,43.0,30.40,SSW,196,2.0,6.0,38,0.00,,,0.00,925,Wunderground v.1.15,2013-04-27 16:59:00,
2013-04-27 13:04:00,70.3,42.8,30.40,SSE,155,6.0,10.0,37,0.00,,,0.00,932,Wunderground v.1.15,2013-04-27 17:04:00,
2013-04-27 13:09:00,70.5,42.2,30.40,South,190,3.0,10.0,36,0.00,,,0.00,912,Wunderground v.1.15,2013-04-27 17:09:00,
2013-04-27 13:14:00,70.3,42.1,30.39,ESE,123,1.0,4.0,36,0.00,,,0.00,928,Wunderground v.1.15,2013-04-27 17:14:00,
2013-04-27 13:19:00,70.1,41.2,30.39,ESE,107,4.0,9.0,35,0.00,,,0.00,912,Wunderground v.1.15,2013-04-27 17:19:00,
2013-04-27 13:24:00,71.0,44.1,30.39,SSW,202,2.0,5.0,38,0.00,,,0.00,911,Wunderground v.1.15,2013-04-27 17:24:00,
2013-04-27 13:29:00,71.3,43.0,30.39,SSE,155,7.0,8.0,36,0.00,,,0.00,916,Wunderground v.1.15,2013-04-27 17:29:00,
2013-04-27 13:34:00,70.7,40.9,30.39,SSE,161,1.0,8.0,34,0.00,,,0.00,907,Wunderground v.1.15,2013-04-27 17:34:00,
2013-04-27 13:39:00,71.3,41.5,30.39,SE,146,4.0,9.0,34,0.00,,,0.00,926,Wunderground v.1.15,2013-04-27 17:39:00,
2013-04-27 13:44:00,71.6,44.6,30.39,SSW,196,2.0,5.0,38,0.00,,,0.00,907,Wunderground v.1.15,2013-04-27 17:44:00,
2013-04-27 13:49:00,71.7,42.6,30.39,SSE,158,4.0,9.0,35,0.00,,,0.00,902,Wunderground v.1.15,2013-04-27 17:49:00,
2013-04-27 13:54:00,71.3,41.5,30.38,South,176,6.0,9.0,34,0.00,,,0.00,844,Wunderground v.1.15,2013-04-27 17:54:00,
2013-04-27 13:59:00,71.1,42.0,30.38,WNW,296,5.0,9.0,35,0.00,,,0.00,761,Wunderground v.1.15,2013-04-27 17:59:00,
2013-04-27 14:04:00,71.9,42.0,30.38,SE,134,8.0,9.0,34,0.00,,,0.00,835,Wunderground v.1.15,2013-04-27 18:04:00,
2013-04-27 14:09:00,72.0,41.3,30.38,SSE,154,1.0,9.0,33,0.00,,,0.00,803,Wunderground v.1.15,2013-04-27 18:09:00,
2013-04-27 14:14:00,71.0,39.6,30.38,ESE,121,0.0,7.0,32,0.00,,,0.00,737,Wunderground v.1.15,2013-04-27 18:14:00,
2013-04-27 14:19:00,71.4,43.0,30.38,South,190,5.0,7.0,36,0.00,,,0.00,738,Wunderground v.1.15,2013-04-27 18:19:00,
2013-04-27 14:24:00,71.5,43.1,30.38,South,175,5.0,8.0,36,0.00,,,0.00,780,Wunderground v.1.15,2013-04-27 18:24:00,
2013-04-27 14:30:00,72.3,44.6,30.38,SW,227,5.0,5.0,37,0.00,,,0.00,752,Wunderground v.1.15,2013-04-27 18:30:00,
2013-04-27 14:35:00,72.7,44.2,30.38,South,171,2.0,5.0,36,0.00,,,0.00,712,Wunderground v.1.15,2013-04-27 18:35:00,
2013-04-27 14:40:00,72.2,42.3,30.38,South,179,5.0,5.0,34,0.00,,,0.00,679,Wunderground v.1.15,2013-04-27 18:40:00,
2013-04-27 14:45:00,72.1,42.9,30.38,SSE,166,2.0,10.0,35,0.00,,,0.00,775,Wunderground v.1.15,2013-04-27 18:45:00,
2013-04-27 14:50:00,72.1,42.2,30.38,SSE,156,2.0,4.0,34,0.00,,,0.00,645,Wunderground v.1.15,2013-04-27 18:50:00,
2013-04-27 14:55:00,71.9,41.2,30.37,SE,128,4.0,6.0,33,0.00,,,0.00,545,Wunderground v.1.15,2013-04-27 18:55:00,
2013-04-27 15:00:00,72.2,47.2,30.37,SW,220,1.0,2.0,41,0.00,,,0.00,531,Wunderground v.1.15,2013-04-27 19:00:00,
2013-04-27 15:05:00,71.9,43.5,30.37,South,183,6.0,6.0,36,0.00,,,0.00,483,Wunderground v.1.15,2013-04-27 19:05:00,
2013-04-27 15:10:00,71.9,45.6,30.37,SSW,204,3.0,5.0,39,0.00,,,0.00,431,Wunderground v.1.15,2013-04-27 19:10:00,
2013-04-27 15:15:00,71.1,43.5,30.37,South,184,7.0,7.0,37,0.00,,,0.00,413,Wunderground v.1.15,2013-04-27 19:15:00,
2013-04-27 15:20:00,71.3,43.0,30.37,SSW,211,1.0,4.0,36,0.00,,,0.00,450,Wunderground v.1.15,2013-04-27 19:20:00,
2013-04-27 15:25:00,71.4,43.0,30.37,SSE,150,2.0,4.0,36,0.00,,,0.00,494,Wunderground v.1.15,2013-04-27 19:25:00,
2013-04-27 15:30:00,71.4,42.3,30.36,SSE,161,1.0,2.0,35,0.00,,,0.00,482,Wunderground v.1.15,2013-04-27 19:30:00,
2013-04-27 15:35:00,71.6,41.7,30.36,SW,214,0.0,4.0,34,0.00,,,0.00,473,Wunderground v.1.15,2013-04-27 19:35:00,
2013-04-27 15:40:00,71.2,42.1,30.36,South,172,0.0,2.0,35,0.00,,,0.00,468,Wunderground v.1.15,2013-04-27 19:40:00,
2013-04-27 15:45:00,71.0,44.1,30.36,West,262,0.0,5.0,38,0.00,,,0.00,483,Wunderground v.1.15,2013-04-27 19:45:00,
2013-04-27 15:50:00,71.3,43.7,30.36,South,179,0.0,3.0,37,0.00,,,0.00,445,Wunderground v.1.15,2013-04-27 19:50:00,
2013-04-27 15:56:00,71.7,42.6,30.36,SSE,153,4.0,7.0,35,0.00,,,0.00,404,Wunderground v.1.15,2013-04-27 19:56:00,
2013-04-27 16:01:00,71.7,41.8,30.36,SSE,153,0.0,4.0,34,0.00,,,0.00,403,Wunderground v.1.15,2013-04-27 20:01:00,
2013-04-27 16:06:00,71.9,42.0,30.35,SE,132,4.0,7.0,34,0.00,,,0.00,475,Wunderground v.1.15,2013-04-27 20:06:00,
2013-04-27 16:11:00,71.7,42.6,30.35,SE,126,4.0,4.0,35,0.00,,,0.00,443,Wunderground v.1.15,2013-04-27 20:11:00,
2013-04-27 16:16:00,71.7,43.3,30.35,SE,136,4.0,7.0,36,0.00,,,0.00,366,Wunderground v.1.15,2013-04-27 20:16:00,
2013-04-27 16:21:00,71.6,43.2,30.35,SSE,157,1.0,5.0,36,0.00,,,0.00,362,Wunderground v.1.15,2013-04-27 20:21:00,
2013-04-27 16:26:00,71.6,43.2,30.35,South,177,4.0,5.0,36,0.00,,,0.00,366,Wunderground v.1.15,2013-04-27 20:26:00,
2013-04-27 16:31:00,71.1,42.8,30.35,SSE,164,3.0,5.0,36,0.00,,,0.00,355,Wunderground v.1.15,2013-04-27 20:31:00,
2013-04-27 16:36:00,71.4,43.8,30.35,SSE,154,1.0,6.0,37,0.00,,,0.00,394,Wunderground v.1.15,2013-04-27 20:36:00,
2013-04-27 16:41:00,71.9,42.8,30.35,SE,142,2.0,7.0,35,0.00,,,0.00,367,Wunderground v.1.15,2013-04-27 20:41:00,
2013-04-27 16:46:00,71.5,43.1,30.35,SE,138,0.0,7.0,36,0.00,,,0.00,311,Wunderground v.1.15,2013-04-27 20:46:00,
2013-04-27 16:51:00,71.4,43.0,30.35,SSE,153,2.0,4.0,36,0.00,,,0.00,301,Wunderground v.1.15,2013-04-27 20:51:00,
2013-04-27 16:56:00,71.5,43.8,30.34,South,182,4.0,4.0,37,0.00,,,0.00,304,Wunderground v.1.15,2013-04-27 20:56:00,
2013-04-27 17:01:00,71.3,44.4,30.35,SSW,198,4.0,7.0,38,0.00,,,0.00,267,Wunderground v.1.15,2013-04-27 21:01:00,
2013-04-27 17:06:00,70.9,43.3,30.34,South,183,4.0,7.0,37,0.00,,,0.00,267,Wunderground v.1.15,2013-04-27 21:06:00,
2013-04-27 17:11:00,71.0,44.8,30.34,South,174,2.0,3.0,39,0.00,,,0.00,283,Wunderground v.1.15,2013-04-27 21:11:00,
2013-04-27 17:16:00,71.2,45.0,30.34,SE,142,1.0,4.0,39,0.00,,,0.00,267,Wunderground v.1.15,2013-04-27 21:16:00,
2013-04-27 17:21:00,71.3,43.7,30.34,SE,142,4.0,6.0,37,0.00,,,0.00,253,Wunderground v.1.15,2013-04-27 21:21:00,
2013-04-27 17:26:00,70.9,43.3,30.34,SSW,199,5.0,6.0,37,0.00,,,0.00,209,Wunderground v.1.15,2013-04-27 21:26:00,
2013-04-27 17:31:00,70.6,45.1,30.35,South,182,2.0,3.0,40,0.00,,,0.00,204,Wunderground v.1.15,2013-04-27 21:31:00,
2013-04-27 17:36:00,70.6,44.4,30.35,SSE,150,2.0,4.0,39,0.00,,,0.00,174,Wunderground v.1.15,2013-04-27 21:36:00,
2013-04-27 17:41:00,70.6,44.4,30.34,SE,141,3.0,5.0,39,0.00,,,0.00,162,Wunderground v.1.15,2013-04-27 21:41:00,
2013-04-27 17:46:00,70.8,45.3,30.34,SSE,149,1.0,5.0,40,0.00,,,0.00,167,Wunderground v.1.15,2013-04-27 21:46:00,
2013-04-27 17:51:00,70.6,45.1,30.34,SE,140,4.0,5.0,40,0.00,,,0.00,172,Wunderground v.1.15,2013-04-27 21:51:00,
2013-04-27 17:56:00,70.6,45.7,30.34,ESE,123,3.0,5.0,41,0.00,,,0.00,165,Wunderground v.1.15,2013-04-27 21:56:00,
2013-04-27 18:01:00,70.1,45.9,30.34,SE,124,4.0,4.0,42,0.00,,,0.00,169,Wunderground v.1.15,2013-04-27 22:01:00,
2013-04-27 18:06:00,70.0,46.5,30.34,ESE,110,1.0,5.0,43,0.00,,,0.00,179,Wunderground v.1.15,2013-04-27 22:06:00,
2013-04-27 18:11:00,69.9,45.8,30.34,SE,131,3.0,5.0,42,0.00,,,0.00,165,Wunderground v.1.15,2013-04-27 22:11:00,
2013-04-27 18:16:00,69.6,46.7,30.34,ESE,121,2.0,5.0,44,0.00,,,0.00,172,Wunderground v.1.15,2013-04-27 22:16:00,
2013-04-27 18:21:00,69.6,46.7,30.34,ESE,123,3.0,4.0,44,0.00,,,0.00,155,Wunderground v.1.15,2013-04-27 22:21:00,
2013-04-27 18:27:00,69.6,46.7,30.34,SE,132,4.0,4.0,44,0.00,,,0.00,141,Wunderground v.1.15,2013-04-27 22:27:00,
2013-04-27 18:32:00,69.3,47.0,30.34,ESE,121,3.0,4.0,45,0.00,,,0.00,123,Wunderground v.1.15,2013-04-27 22:32:00,
2013-04-27 18:36:00,69.2,47.5,30.34,SE,138,3.0,5.0,46,0.00,,,0.00,120,Wunderground v.1.15,2013-04-27 22:36:00,
2013-04-27 18:42:00,69.1,48.0,30.34,ESE,123,3.0,5.0,47,0.00,,,0.00,109,Wunderground v.1.15,2013-04-27 22:42:00,
2013-04-27 18:47:00,69.0,47.9,30.34,ESE,117,2.0,5.0,47,0.00,,,0.00,98,Wunderground v.1.15,2013-04-27 22:47:00,
2013-04-27 18:52:00,68.8,48.3,30.34,ESE,123,1.0,3.0,48,0.00,,,0.00,81,Wunderground v.1.15,2013-04-27 22:52:00,
2013-04-27 18:57:00,68.6,48.1,30.34,SE,124,5.0,5.0,48,0.00,,,0.00,74,Wunderground v.1.15,2013-04-27 22:57:00,
2013-04-27 19:02:00,68.5,48.6,30.33,SE,126,3.0,5.0,49,0.00,,,0.00,69,Wunderground v.1.15,2013-04-27 23:02:00,
2013-04-27 19:07:00,68.3,47.8,30.33,ESE,122,2.0,5.0,48,0.00,,,0.00,54,Wunderground v.1.15,2013-04-27 23:07:00,
2013-04-27 19:12:00,68.1,47.7,30.33,SE,128,3.0,5.0,48,0.00,,,0.00,44,Wunderground v.1.15,2013-04-27 23:12:00,
2013-04-27 19:17:00,67.9,48.0,30.33,ESE,123,3.0,5.0,49,0.00,,,0.00,39,Wunderground v.1.15,2013-04-27 23:17:00,
2013-04-27 19:22:00,67.6,48.3,30.33,SE,127,2.0,3.0,50,0.00,,,0.00,32,Wunderground v.1.15,2013-04-27 23:22:00,
2013-04-27 19:27:00,67.4,48.1,30.33,ESE,119,2.0,4.0,50,0.00,,,0.00,25,Wunderground v.1.15,2013-04-27 23:27:00,
2013-04-27 19:32:00,67.3,48.0,30.33,SE,128,3.0,4.0,50,0.00,,,0.00,19,Wunderground v.1.15,2013-04-27 23:32:00,
2013-04-27 19:37:00,67.1,47.8,30.33,ESE,117,1.0,4.0,50,0.00,,,0.00,14,Wunderground v.1.15,2013-04-27 23:37:00,
2013-04-27 19:42:00,66.9,48.2,30.33,ESE,123,2.0,4.0,51,0.00,,,0.00,11,Wunderground v.1.15,2013-04-27 23:42:00,
2013-04-27 19:48:00,66.6,47.9,30.33,ESE,121,2.0,4.0,51,0.00,,,0.00,7,Wunderground v.1.15,2013-04-27 23:48:00,
2013-04-27 19:53:00,66.4,48.2,30.33,ESE,122,3.0,4.0,52,0.00,,,0.00,0,Wunderground v.1.15,2013-04-27 23:53:00,
2013-04-27 19:58:00,66.1,48.0,30.33,SE,127,3.0,4.0,52,0.00,,,0.00,0,Wunderground v.1.15,2013-04-27 23:58:00,
2013-04-27 20:03:00,65.9,48.3,30.33,SE,134,0.0,2.0,53,0.00,,,0.00,0,Wunderground v.1.15,2013-04-28 00:03:00,
2013-04-27 20:08:00,65.7,48.6,30.33,SE,134,1.0,2.0,54,0.00,,,0.00,0,Wunderground v.1.15,2013-04-28 00:08:00,
2013-04-27 20:13:00,65.5,48.4,30.33,SE,132,0.0,2.0,54,0.00,,,0.00,0,Wunderground v.1.15,2013-04-28 00:13:00,
2013-04-27 20:18:00,65.3,48.2,30.33,SE,132,1.0,2.0,54,0.00,,,0.00,0,Wunderground v.1.15,2013-04-28 00:18:00,
2013-04-27 20:23:00,65.2,48.6,30.33,SE,132,2.0,2.0,55,0.00,,,0.00,0,Wunderground v.1.15,2013-04-28 00:23:00,
2013-04-27 20:28:00,65.0,48.4,30.33,SE,130,2.0,3.0,55,0.00,,,0.00,0,Wunderground v.1.15,2013-04-28 00:28:00,
2013-04-27 20:33:00,64.8,48.2,30.33,SE,127,2.0,3.0,55,0.00,,,0.00,0,Wunderground v.1.15,2013-04-28 00:33:00,
2013-04-27 20:38:00,64.8,48.7,30.33,SE,127,1.0,3.0,56,0.00,,,0.00,0,Wunderground v.1.15,2013-04-28 00:38:00,
2013-04-27 20:43:00,64.7,48.6,30.33,SE,127,1.0,2.0,56,0.00,,,0.00,0,Wunderground v.1.15,2013-04-28 00:43:00,
2013-04-27 20:48:00,64.4,48.8,30.33,SE,127,2.0,3.0,57,0.00,,,0.00,0,Wunderground v.1.15,2013-04-28 00:48:00,
2013-04-27 20:53:00,64.1,48.5,30.33,SE,127,2.0,2.0,57,0.00,,,0.00,0,Wunderground v.1.15,2013-04-28 00:53:00,
2013-04-27 20:58:00,63.8,49.2,30.33,SE,127,1.0,2.0,59,0.00,,,0.00,0,Wunderground v.1.15,2013-04-28 00:58:00,
2013-04-27 21:03:00,63.4,49.7,30.33,SE,127,0.0,1.0,61,0.00,,,0.00,0,Wunderground v.1.15,2013-04-28 01:03:00,
2013-04-27 21:08:00,62.7,49.5,30.33,SE,127,0.0,1.0,62,0.00,,,0.00,0,Wunderground v.1.15,2013-04-28 01:08:00,
2013-04-27 21:13:00,62.0,50.5,30.34,SE,127,0.0,0.0,66,0.00,,,0.00,0,Wunderground v.1.15,2013-04-28 01:13:00,
2013-04-27 21:18:00,61.0,51.1,30.34,SE,127,0.0,0.0,70,0.00,,,0.00,0,Wunderground v.1.15,2013-04-28 01:18:00,
2013-04-27 21:23:00,60.9,50.3,30.33,SE,127,0.0,0.0,68,0.00,,,0.00,0,Wunderground v.1.15,2013-04-28 01:23:00,
2013-04-27 21:28:00,60.4,51.3,30.34,SE,127,0.0,0.0,72,0.00,,,0.00,0,Wunderground v.1.15,2013-04-28 01:28:00,
2013-04-27 21:33:00,59.7,51.8,30.34,SE,127,0.0,1.0,75,0.00,,,0.00,0,Wunderground v.1.15,2013-04-28 01:33:00,
2013-04-27 21:38:00,58.4,51.6,30.34,SE,127,0.0,1.0,78,0.00,,,0.00,0,Wunderground v.1.15,2013-04-28 01:38:00,
2013-04-27 21:43:00,58.5,51.0,30.34,SSW,197,0.0,1.0,76,0.00,,,0.00,0,Wunderground v.1.15,2013-04-28 01:43:00,
2013-04-27 21:48:00,58.4,50.5,30.34,West,281,1.0,3.0,75,0.00,,,0.00,0,Wunderground v.1.15,2013-04-28 01:48:00,
2013-04-27 21:53:00,59.9,50.1,30.34,SSE,167,2.0,4.0,70,0.00,,,0.00,0,Wunderground v.1.15,2013-04-28 01:53:00,
2013-04-27 21:58:00,61.7,49.4,30.34,South,186,0.0,4.0,64,0.00,,,0.00,0,Wunderground v.1.15,2013-04-28 01:58:00,
2013-04-27 22:03:00,61.3,49.8,30.34,South,186,0.0,2.0,66,0.00,,,0.00,0,Wunderground v.1.15,2013-04-28 02:03:00,
2013-04-27 22:08:00,61.5,50.8,30.34,South,186,0.0,2.0,68,0.00,,,0.00,0,Wunderground v.1.15,2013-04-28 02:08:00,
2013-04-27 22:13:00,60.7,50.5,30.34,SW,229,0.0,2.0,69,0.00,,,0.00,0,Wunderground v.1.15,2013-04-28 02:13:00,
2013-04-27 22:18:00,60.5,49.9,30.34,SW,229,0.0,2.0,68,0.00,,,0.00,0,Wunderground v.1.15,2013-04-28 02:18:00,
2013-04-27 22:23:00,60.2,50.4,30.34,SW,229,0.0,1.0,70,0.00,,,0.00,0,Wunderground v.1.15,2013-04-28 02:23:00,
2013-04-27 22:28:00,59.6,50.6,30.34,SW,229,0.0,1.0,72,0.00,,,0.00,0,Wunderground v.1.15,2013-04-28 02:28:00,
2013-04-27 22:33:00,59.1,50.8,30.34,SW,229,0.0,1.0,74,0.00,,,0.00,0,Wunderground v.1.15,2013-04-28 02:33:00,
2013-04-27 22:38:00,59.9,50.1,30.34,SW,229,0.0,1.0,70,0.00,,,0.00,0,Wunderground v.1.15,2013-04-28 02:38:00,
2013-04-27 22:43:00,60.2,50.4,30.34,SW,220,0.0,2.0,70,0.00,,,0.00,0,Wunderground v.1.15,2013-04-28 02:43:00,
2013-04-27 22:49:00,60.5,50.7,30.34,SW,219,1.0,2.0,70,0.00,,,0.00,0,Wunderground v.1.15,2013-04-28 02:49:00,
2013-04-27 22:54:00,61.6,50.5,30.34,South,171,2.0,3.0,67,0.00,,,0.00,0,Wunderground v.1.15,2013-04-28 02:54:00,
2013-04-27 22:59:00,61.3,51.0,30.34,South,169,1.0,3.0,69,0.00,,,0.00,0,Wunderground v.1.15,2013-04-28 02:59:00,
2013-04-27 23:04:00,60.3,50.5,30.34,South,169,0.0,1.0,70,0.00,,,0.00,0,Wunderground v.1.15,2013-04-28 03:04:00,
2013-04-27 23:09:00,59.7,51.4,30.34,South,169,0.0,1.0,74,0.00,,,0.00,0,Wunderground v.1.15,2013-04-28 03:09:00,
2013-04-27 23:14:00,60.3,49.7,30.34,SSE,161,2.0,2.0,68,0.00,,,0.00,0,Wunderground v.1.15,2013-04-28 03:14:00,
2013-04-27 23:19:00,61.1,48.8,30.34,ESE,120,2.0,6.0,64,0.00,,,0.00,0,Wunderground v.1.15,2013-04-28 03:19:00,
2013-04-27 23:24:00,61.3,48.6,30.34,SE,134,2.0,5.0,63,0.00,,,0.00,0,Wunderground v.1.15,2013-04-28 03:24:00,
2013-04-27 23:29:00,61.2,48.1,30.34,SE,124,4.0,7.0,62,0.00,,,0.00,0,Wunderground v.1.15,2013-04-28 03:29:00,
2013-04-27 23:34:00,61.1,47.5,30.34,SE,130,0.0,4.0,61,0.00,,,0.00,0,Wunderground v.1.15,2013-04-28 03:34:00,
2013-04-27 23:39:00,60.8,47.7,30.34,SE,136,2.0,5.0,62,0.00,,,0.00,0,Wunderground v.1.15,2013-04-28 03:39:00,
2013-04-27 23:44:00,60.6,47.5,30.34,SE,128,1.0,6.0,62,0.00,,,0.00,0,Wunderground v.1.15,2013-04-28 03:44:00,
2013-04-27 23:49:00,60.4,47.3,30.34,SE,132,4.0,7.0,62,0.00,,,0.00,0,Wunderground v.1.15,2013-04-28 03:49:00,
2013-04-27 23:54:00,60.3,47.2,30.34,SE,127,1.0,5.0,62,0.00,,,0.00,0,Wunderground v.1.15,2013-04-28 03:54:00,
2013-04-27 23:59:00,60.0,47.8,30.34,ESE,114,2.0,5.0,64,0.00,,,0.00,0,Wunderground v.1.15,2013-04-28 03:59:00,